Content
SEND FEEDBACK

Daily
Averages
Monthly
Summary
United States of America

MAY, TEXAS


Home > North America > United States > Texas
Elevation: 1450 feet     Latitude: 31 55N     Longitude: 099 03W

WEATHER
 
SELECT A DAY
Number of Records: 276,114;   Date Range: 12/12/02 - 10/30/14
 
SHARE

PRINT THIS DATA

[ ← Previous Day ]
WEATHER ALMANAC - JANUARY 31, 2013
[ Next Day → ]
[ °C ]   °F
Weather ElementAverageHighLow
Temperature45.8 °F66.2 °F (1:55 pm)23 °F (4:35 am)
Dewpoint19.7 °F28.4 °F (10:35 pm)15.8 °F (3:15 am)
Humidity43.1 %80 % (4:35 am)14 % (1:55 pm)
Barometer30.19 in30.26 in (11:35 pm)30.12 in (2:55 pm)
Wind Speed6.1 mph20.7 mph (2:35 pm)
Wind Gust29.9 mph (1:55 pm)
Weather ElementAverage
Visibility10 mi
Wind DirectionESE (110.7 °)

Weather ElementTotal
Precipitation---
Heating Degree Days20.4 (Base 65)
Averaged from 69 records on January 31, 2013
WEATHER CONDITIONS BREAKOUT
WIND DIRECTION BREAKOUT
WEATHER BY HOUR - JANUARY 31, 2013
[ °C ]   °F
Local TimeTemperatureDewpointHumidityBarometerVisibilityWind DirectionWind SpeedGust SpeedPrecipitationEventsConditions
12:35 AM30.2 °F19.4 °F64 %30.18 in10.0 miCalmClear
12:55 AM28.4 °F19.4 °F69 %30.18 in10.0 miCalmPartly Cloudy
1:15 AM30.2 °F19.4 °F64 %30.17 in10.0 miCalmPartly Cloudy
1:35 AM26.6 °F19.4 °F74 %30.18 in10.0 miCalmPartly Cloudy
1:55 AM26.6 °F19.4 °F74 %30.17 in10.0 miCalmPartly Cloudy
2:15 AM26.6 °F19.4 °F74 %30.18 in10.0 miCalmPartly Cloudy
2:35 AM24.8 °F17.6 °F74 %30.19 in10.0 miCalmClear
2:55 AM26.6 °F19.4 °F74 %30.19 in10.0 miESE (110°)3.5 mphPartly Cloudy
3:15 AM32.0 °F15.8 °F51 %30.18 in10.0 miENE (60°)3.5 mphPartly Cloudy
3:35 AM26.6 °F19.4 °F74 %30.17 in10.0 miEast (90°)4.6 mphClear
3:55 AM26.6 °F19.4 °F74 %30.17 in10.0 miCalmClear
4:15 AM26.6 °F17.6 °F69 %30.16 in10.0 miCalmClear
4:35 AM23.0 °F17.6 °F80 %30.15 in10.0 miCalmClear
4:55 AM26.6 °F19.4 °F74 %30.15 in10.0 miCalmClear
5:15 AM26.6 °F19.4 °F74 %30.14 in10.0 miCalmClear
5:35 AM23.0 °F17.6 °F80 %30.16 in10.0 miCalmClear
6:15 AM23.0 °F17.6 °F80 %30.17 in10.0 miSouth (190°)4.6 mphClear
6:55 AM26.6 °F19.4 °F74 %30.19 in10.0 miSE (130°)5.8 mphClear
7:15 AM28.4 °F17.6 °F64 %30.19 in10.0 miSE (140°)4.6 mphClear
7:35 AM28.4 °F17.6 °F64 %30.20 in10.0 miESE (120°)3.5 mphClear
7:55 AM26.6 °F17.6 °F69 %30.21 in10.0 miSE (130°)4.6 mphClear
8:15 AM32.0 °F21.2 °F64 %30.21 in10.0 miEast (90°)4.6 mphClear
8:35 AM35.6 °F23.0 °F60 %30.21 in10.0 miCalmClear
8:55 AM37.4 °F24.8 °F60 %30.22 in10.0 miCalmClear
9:15 AM39.2 °F21.2 °F49 %30.23 in10.0 miSouth (170°)3.5 mphClear
9:35 AM42.8 °F19.4 °F39 %30.23 in10.0 miSSW (200°)5.8 mphClear
9:55 AM46.4 °F19.4 °F34 %30.24 in10.0 miSSW (200°)5.8 mphClear
10:15 AM48.2 °F17.6 °F30 %30.24 inSW (220°)11.5 mph17.3 mph
10:35 AM53.6 °F15.8 °F22 %30.24 in10.0 miSW (230°)12.7 mphClear
10:55 AM55.4 °F17.6 °F23 %30.24 in10.0 miSW (230°)12.7 mph17.3 mphClear
11:15 AM55.4 °F17.6 °F23 %30.23 in10.0 miSW (220°)15.0 mph19.6 mphClear
11:35 AM57.2 °F19.4 °F23 %30.23 in10.0 miSW (230°)15.0 mph18.4 mphClear
11:55 AM59.0 °F17.6 °F20 %30.21 in10.0 miWSW (250°)18.4 mphClear
12:15 PM62.6 °F17.6 °F18 %30.20 in10.0 miSW (220°)12.7 mph23.0 mphClear
12:35 PM64.4 °F17.6 °F16 %30.19 in10.0 miWSW (250°)11.5 mphClear
12:55 PM64.4 °F15.8 °F15 %30.18 in10.0 miWSW (250°)16.1 mph23.0 mphClear
1:15 PM64.4 °F15.8 °F15 %30.17 in10.0 miWSW (250°)18.4 mph25.3 mphClear
1:35 PM64.4 °F15.8 °F15 %30.17 in10.0 miWSW (240°)17.3 mph24.2 mphClear
1:55 PM66.2 °F15.8 °F14 %30.16 in10.0 miWest (260°)15.0 mph29.9 mphClear
2:15 PM66.2 °F15.8 °F14 %30.14 in10.0 miWest (260°)16.1 mph23.0 mphClear
2:35 PM66.2 °F15.8 °F14 %30.13 in10.0 miSW (230°)20.7 mph25.3 mphClear
2:55 PM66.2 °F15.8 °F14 %30.12 in10.0 miWest (260°)18.4 mph26.5 mphClear
3:15 PM66.2 °F15.8 °F14 %30.13 in10.0 miSW (230°)19.6 mph27.6 mphClear
3:35 PM66.2 °F15.8 °F14 %30.13 in10.0 miWSW (250°)11.5 mph21.9 mphClear
3:55 PM66.2 °F17.6 °F15 %30.14 in10.0 miWSW (240°)15.0 mph25.3 mphClear
4:15 PM66.2 °F17.6 °F15 %30.14 in10.0 miSW (230°)19.6 mph23.0 mphClear
4:35 PM66.2 °F17.6 °F15 %30.14 in10.0 miWSW (240°)13.8 mphClear
4:55 PM64.4 °F17.6 °F16 %30.14 in10.0 miSW (220°)12.7 mphClear
5:15 PM66.2 °F17.6 °F15 %30.14 in10.0 miSW (230°)12.7 mphClear
5:35 PM66.2 °F17.6 °F15 %30.14 in10.0 miSW (230°)8.1 mphClear
5:55 PM62.6 °F17.6 °F18 %30.14 in10.0 miSW (220°)8.1 mphClear
6:15 PM60.8 °F19.4 °F20 %30.15 in10.0 miWest (260°)4.6 mphClear
6:35 PM60.8 °F19.4 °F20 %30.16 in10.0 miCalmClear
6:55 PM57.2 °F19.4 °F23 %30.17 in10.0 miCalmPartly Cloudy
7:15 PM55.4 °F21.2 °F26 %30.19 in10.0 miCalmScattered Clouds
7:35 PM55.4 °F19.4 °F25 %30.19 in10.0 miCalmMostly Cloudy
7:55 PM53.6 °F21.2 °F28 %30.21 in10.0 miCalmScattered Clouds
8:15 PM48.2 °F24.8 °F40 %30.21 in10.0 miCalmMostly Cloudy
8:35 PM46.4 °F24.8 °F43 %30.22 in10.0 miCalmOvercast
8:55 PM48.2 °F24.8 °F40 %30.22 in10.0 miNE (40°)3.5 mphMostly Cloudy
9:15 PM44.6 °F26.6 °F49 %30.23 in10.0 miCalmPartly Cloudy
9:35 PM44.6 °F26.6 °F49 %30.23 in10.0 miCalmClear
9:55 PM42.8 °F24.8 °F49 %30.23 in10.0 miCalmClear
10:15 PM42.8 °F26.6 °F53 %30.24 in10.0 miCalmClear
10:35 PM39.2 °F28.4 °F65 %30.24 in10.0 miCalmClear
10:55 PM41.0 °F26.6 °F57 %30.25 in10.0 miCalmClear
11:15 PM41.0 °F26.6 °F57 %30.25 in10.0 miCalmClear
11:35 PM39.2 °F26.6 °F61 %30.26 in10.0 miCalmClear
11:55 PM39.2 °F24.8 °F56 %30.26 in10.0 miNNE (20°)6.9 mphClear
Hourly data recorded from KBWD, located miles away from May, Texas







STORIES FROM OUR PARTNERS